• In Hungary
  • List of Countries
  • For 7 days
  • Water Temperature
  • Satellite Maps
  • Weather Map
  • News
  • Weather Widgets
  • user-avatar
    Login

    Hourly Weather Prachatice

    Today, 23 February, Friday

    Time Temperature Precipitation Wind Pressure Humidity
    00:00 -9°C° 0 mm 3 mps 700 mmHg 85%
    01:00 -9°C° 0 mm 3 mps 700 mmHg 86%
    02:00 -9°C° 0 mm 3 mps 700 mmHg 86%
    03:00 -10°C° 0 mm 3 mps 700 mmHg 86%
    04:00 -10°C° 0 mm 3 mps 699 mmHg 86%
    05:00 -10°C° 0 mm 3 mps 699 mmHg 86%
    06:00 -10°C° 0 mm 3 mps 699 mmHg 85%
    07:00 -10°C° 0 mm 2 mps 700 mmHg 88%
    08:00 -9°C° 0 mm 2 mps 700 mmHg 84%
    09:00 -9°C° 0 mm 3 mps 700 mmHg 81%
    10:00 -8°C° 0 mm 3 mps 700 mmHg 77%
    11:00 -8°C° 0 mm 4 mps 700 mmHg 75%
    12:00 -7°C° 0 mm 4 mps 700 mmHg 74%
    13:00 -5°C° 0 mm 4 mps 701 mmHg 72%
    14:00 -5°C° 0 mm 4 mps 700 mmHg 73%
    15:00 -5°C° 0 mm 4 mps 700 mmHg 73%
    16:00 -5°C° 0 mm 4 mps 700 mmHg 74%
    17:00 -7°C° 0 mm 4 mps 700 mmHg 77%
    18:00 -7°C° 0 mm 3 mps 700 mmHg 80%
    19:00 -8°C° 0 mm 3 mps 701 mmHg 83%
    20:00 -9°C° 0 mm 3 mps 701 mmHg 83%
    21:00 -9°C° 0 mm 3 mps 701 mmHg 84%
    22:00 -10°C° 0 mm 3 mps 701 mmHg 85%
    23:00 -10°C° 0 mm 3 mps 701 mmHg 85%

    Tomorrow, 24 February, Saturday

    Time Temperature Precipitation Wind Pressure Humidity
    00:00 -10°C° 0 mm 3 mps 701 mmHg 86%
    01:00 -12°C° 0 mm 3 mps 701 mmHg 86%
    02:00 -12°C° 0 mm 3 mps 701 mmHg 86%
    03:00 -13°C° 0 mm 3 mps 701 mmHg 85%
    04:00 -13°C° 0 mm 3 mps 701 mmHg 85%
    05:00 -12°C° 0 mm 2 mps 701 mmHg 83%
    06:00 -12°C° 0 mm 2 mps 701 mmHg 82%
    07:00 -13°C° 0 mm 2 mps 701 mmHg 81%
    08:00 -10°C° 0 mm 2 mps 702 mmHg 75%
    09:00 -9°C° 0 mm 3 mps 702 mmHg 68%
    10:00 -8°C° 0 mm 3 mps 702 mmHg 62%
    11:00 -7°C° 0 mm 3 mps 702 mmHg 63%
    12:00 -7°C° 0 mm 4 mps 702 mmHg 65%
    13:00 -5°C° 0 mm 4 mps 702 mmHg 66%
    14:00 -7°C° 0 mm 4 mps 702 mmHg 66%
    15:00 -7°C° 0 mm 4 mps 702 mmHg 67%
    16:00 -7°C° 0 mm 5 mps 702 mmHg 67%
    17:00 -10°C° 0 mm 5 mps 703 mmHg 69%
    18:00 -11°C° 0 mm 5 mps 703 mmHg 71%
    19:00 -12°C° 0 mm 5 mps 703 mmHg 73%
    20:00 -12°C° 0 mm 5 mps 703 mmHg 74%
    21:00 -13°C° 0 mm 5 mps 703 mmHg 75%
    22:00 -13°C° 0 mm 5 mps 704 mmHg 77%
    23:00 -14°C° 0 mm 5 mps 704 mmHg 76%

    Day after tomorrow, 25 February, Sunday

    Time Temperature Precipitation Wind Pressure Humidity
    00:00 -14°C° 0 mm 4 mps 704 mmHg 76%
    01:00 -15°C° 0 mm 4 mps 704 mmHg 76%
    02:00 -15°C° 0 mm 4 mps 704 mmHg 77%
    03:00 -16°C° 0 mm 4 mps 703 mmHg 77%
    04:00 -16°C° 0 mm 4 mps 703 mmHg 78%
    05:00 -15°C° 0 mm 3 mps 703 mmHg 78%
    06:00 -16°C° 0 mm 3 mps 703 mmHg 79%
    07:00 -16°C° 0 mm 3 mps 703 mmHg 80%
    08:00 -16°C° 0 mm 4 mps 704 mmHg 76%
    09:00 -15°C° 0 mm 4 mps 704 mmHg 72%
    10:00 -14°C° 0 mm 4 mps 704 mmHg 69%
    11:00 -13°C° 0 mm 5 mps 704 mmHg 66%
    12:00 -13°C° 0 mm 5 mps 703 mmHg 63%
    13:00 -12°C° 0 mm 5 mps 703 mmHg 60%
    14:00 -12°C° 0 mm 5 mps 703 mmHg 61%
    15:00 -12°C° 0 mm 5 mps 703 mmHg 61%
    16:00 -12°C° 0 mm 5 mps 702 mmHg 62%
    17:00 -13°C° 0 mm 5 mps 702 mmHg 65%
    18:00 -14°C° 0 mm 5 mps 702 mmHg 69%
    19:00 -14°C° 0 mm 4 mps 703 mmHg 73%
    20:00 -15°C° 0 mm 5 mps 703 mmHg 74%
    21:00 -15°C° 0 mm 5 mps 703 mmHg 75%
    22:00 -15°C° 0 mm 5 mps 703 mmHg 77%
    23:00 -15°C° 0 mm 5 mps 703 mmHg 78%

    26 February, Monday

    Time Temperature Precipitation Wind Pressure Humidity
    00:00 -17°C° 0 mm 5 mps 703 mmHg 79%
    01:00 -17°C° 0 mm 5 mps 702 mmHg 79%
    02:00 -17°C° 0 mm 5 mps 702 mmHg 80%
    03:00 -17°C° 0 mm 5 mps 702 mmHg 81%
    04:00 -17°C° 0 mm 5 mps 702 mmHg 81%
    05:00 -17°C° 0 mm 5 mps 702 mmHg 81%
    06:00 -17°C° 0 mm 5 mps 702 mmHg 82%
    07:00 -18°C° 0 mm 5 mps 702 mmHg 82%
    08:00 -17°C° 0 mm 5 mps 702 mmHg 78%
    09:00 -15°C° 0 mm 5 mps 702 mmHg 75%
    10:00 -14°C° 0 mm 5 mps 702 mmHg 71%
    11:00 -13°C° 0 mm 5 mps 701 mmHg 68%
    12:00 -13°C° 0 mm 5 mps 701 mmHg 64%
    13:00 -12°C° 0 mm 5 mps 701 mmHg 61%
    14:00 -12°C° 0 mm 5 mps 701 mmHg 61%
    15:00 -12°C° 0 mm 5 mps 700 mmHg 60%
    16:00 -12°C° 0 mm 5 mps 700 mmHg 60%
    17:00 -13°C° 0 mm 5 mps 700 mmHg 63%
    18:00 -13°C° 0 mm 5 mps 700 mmHg 65%
    19:00 -14°C° 0 mm 4 mps 700 mmHg 68%
    20:00 -14°C° 0 mm 4 mps 700 mmHg 69%
    21:00 -15°C° 0 mm 4 mps 700 mmHg 70%
    22:00 -15°C° 0 mm 4 mps 700 mmHg 71%
    23:00 -15°C° 0 mm 4 mps 699 mmHg 72%

    27 February, Tuesday

    Time Temperature Precipitation Wind Pressure Humidity
    00:00 -16°C° 0 mm 4 mps 699 mmHg 73%
    01:00 -16°C° 0 mm 4 mps 699 mmHg 74%
    02:00 -16°C° 0 mm 4 mps 699 mmHg 74%
    03:00 -16°C° 0 mm 4 mps 698 mmHg 75%
    04:00 -16°C° 0 mm 4 mps 698 mmHg 76%
    05:00 -17°C° 0 mm 4 mps 698 mmHg 76%
    06:00 -17°C° 0 mm 4 mps 698 mmHg 76%
    07:00 -16°C° 0 mm 3 mps 698 mmHg 77%
    08:00 -17°C° 0 mm 4 mps 698 mmHg 74%
    09:00 -16°C° 0 mm 4 mps 698 mmHg 71%
    10:00 -16°C° 0 mm 4 mps 698 mmHg 68%
    11:00 -15°C° 0 mm 4 mps 698 mmHg 66%
    12:00 -14°C° 0 mm 4 mps 698 mmHg 63%
    13:00 -14°C° 0 mm 4 mps 698 mmHg 61%
    14:00 -14°C° 0 mm 4 mps 697 mmHg 60%
    15:00 -14°C° 0 mm 4 mps 697 mmHg 60%
    16:00 -14°C° 0 mm 4 mps 697 mmHg 60%
    17:00 -13°C° 0 mm 3 mps 697 mmHg 63%
    18:00 -14°C° 0 mm 3 mps 697 mmHg 65%
    19:00 -15°C° 0 mm 3 mps 698 mmHg 68%
    20:00 -14°C° 0 mm 2 mps 698 mmHg 69%
    21:00 -15°C° 0 mm 2 mps 698 mmHg 71%
    22:00 -15°C° 0 mm 2 mps 698 mmHg 72%
    23:00 -16°C° 0 mm 2 mps 698 mmHg 73%

    28 February, Wednesday

    Time Temperature Precipitation Wind Pressure Humidity
    00:00 -16°C° 0 mm 2 mps 698 mmHg 74%
    01:00 -16°C° 0 mm 2 mps 698 mmHg 75%
    02:00 -15°C° 0 mm 1 mps 698 mmHg 76%
    03:00 -15°C° 0 mm 1 mps 698 mmHg 77%
    04:00 -15°C° 0 mm 1 mps 698 mmHg 78%
    05:00 -15°C° 0 mm 1 mps 698 mmHg 79%
    06:00 -15°C° 0 mm 1 mps 698 mmHg 80%
    07:00 -16°C° 0 mm 1 mps 699 mmHg 81%
    08:00 -14°C° 0 mm 1 mps 699 mmHg 76%
    09:00 -15°C° 0 mm 2 mps 699 mmHg 71%
    10:00 -14°C° 0 mm 2 mps 700 mmHg 66%
    11:00 -13°C° 0 mm 2 mps 700 mmHg 63%
    12:00 -12°C° 0 mm 2 mps 700 mmHg 60%
    13:00 -10°C° 0 mm 2 mps 700 mmHg 57%
    14:00 -10°C° 0 mm 2 mps 700 mmHg 58%
    15:00 -12°C° 0 mm 3 mps 699 mmHg 59%
    16:00 -12°C° 0 mm 3 mps 699 mmHg 59%
    17:00 -13°C° 0 mm 3 mps 699 mmHg 63%
    18:00 -14°C° 0 mm 3 mps 699 mmHg 68%
    19:00 -14°C° 0 mm 2 mps 699 mmHg 72%
    20:00 -15°C° 0 mm 3 mps 699 mmHg 73%
    21:00 -16°C° 0 mm 3 mps 699 mmHg 73%
    22:00 -16°C° 0 mm 3 mps 699 mmHg 74%
    23:00 -16°C° 0 mm 3 mps 699 mmHg 75%
    Show more